Regional Weather Roundup
Issued by NWS

Home | Current Version | Previous Version | Text Only | Print | Product List | Glossary Off
Versions: 1 2 3 4 5 6 7 8 9 10 11 12 13 14 15

000
ASUS45 KTFX 151310
RWRMT
MONTANA REGIONAL WEATHER ROUNDUP
NATIONAL WEATHER SERVICE GREAT FALLS MT
600 AM MST SUN JAN 15 2017

NOTE: "FAIR" INDICATES FEW OR NO CLOUDS BELOW 12000 FEET WITH NO
SIGNIFICANT WEATHER AND/OR OBSTRUCTIONS TO VISIBILITY.

MTZ001>007-043-151400-
WEST OF THE DIVIDE

CITY           SKY/WX    TMP DP  RH WIND       PRES   REMARKS
KALISPELL      CLOUDY    15  11  83 CALM      30.34F
MISSOULA       PTCLDY    -9 -11  91 CALM      30.39S FOG
BUTTE          CLOUDY   -11 -15  82 SE3       30.19F
MULLAN PASS    PTCLDY    24   1  36 SW7       30.13F WCI  16
ANACONDA         N/A      0  -6  78 CALM      30.21R
DEER LODGE       N/A     -2  -8  78 CALM      30.26F
HAMILTON         N/A     -8 -11  84 CALM      30.33S
PLAINS           N/A    -12 -21  64 CALM      30.38F
RONAN            N/A      0  -6  75 MISG      30.33F
$$

MTZ008-052>055-151400-
SOUTHWEST MONTANA

CITY           SKY/WX    TMP DP  RH WIND       PRES   REMARKS
BOZEMAN        CLOUDY    -7 -10  87 S5        30.22F
DILLON         CLOUDY     7  -7  52 S10       30.19F WCI  -8
W YELLOWSTONE  HAZE     -22 -29  69 CALM      30.22F VSB 1/4
ENNIS          CLEAR      7  -4  61 NW5       30.23R
TWIN BRIDGES     N/A     -2 -14  56 SE6       30.16S WCI -14
$$

MTZ009-010-012-014-046-048-049-054-151400-
EAST SLOPES AND CENTRAL MONTANA

CITY           SKY/WX    TMP DP  RH WIND       PRES   REMARKS
CUT BANK       MOCLDY    32  11  41 W32       29.95F WCI  17
GREAT FALLS    CLOUDY    26   9  48 SW26      30.04F WCI  10
MALMSTROM AFB  CLOUDY    23  12  62 SW21      30.06S WCI   8
HELENA         CLOUDY    -5 -10  79 CALM      30.25F
AUGUSTA          N/A     23   7  51 S7        30.02F WCI  15
BOWMANS CRNR     N/A     16   5  60 S23       30.05S WCI  -2
CHOTEAU          N/A     32  12  43 SW12G20   30.02S WCI  23
CONRAD           N/A     12   4  70 S3        30.01S
FAIRFIELD        N/A     21   9  57 S21       30.02F WCI   6
POWER            N/A     21   8  59 SW14      30.03F WCI   8
RAYNESFORD       N/A     29  11  45 SW9       30.05F WCI  21
ULM              N/A     23   8  52 MISG      30.08S
$$

MTZ011-013-016-021-045-047-050-051-151400-
NORTH CENTRAL MONTANA

CITY           SKY/WX    TMP DP  RH WIND       PRES   REMARKS
HAVRE          CLOUDY    10   4  76 W9        30.03F WCI  -3
LEWISTOWN      CLOUDY    16   4  59 SE8       30.04F WCI   5
N BAR RANCH      N/A     25   7  46 SW9       30.03F WCI  15
CHINOOK          N/A     -8 -11  84 E3        30.05F
DENTON           N/A     16   8  68 S13       30.00S WCI   2
FORT BENTON      N/A     27  12  54 MISG      30.06S
GEYSER           N/A     28  11  47 W15G25    30.01S WCI  17
GRASS RANGE      N/A     29   9  41 W13       29.99F WCI  19
JUDITH GAP       N/A     24   7  49 W17       30.02F WCI  10
ROY              N/A     31  11  43 MISG      30.00F
STANFORD         N/A     24   9  52 SW6       30.02S WCI  17
WINIFRED         N/A     31  10  42 SW7       30.02S WCI  24
$$

MTZ017>020-022>027-061-062-151400-
NORTHEAST MONTANA

CITY           SKY/WX    TMP DP  RH WIND       PRES   REMARKS
GLASGOW        CLOUDY    -6  -8  91 S9        30.06S WCI -23
JORDAN           N/A     -3  -7  82 W5        30.05F
SIDNEY         CLOUDY     1  -4  79 S6        30.11F WCI -10
WOLF POINT     CLOUDY   -11 -18  71 W6        30.10F WCI -25
PLENTYWOOD       N/A      7   0  72 E6        30.02F WCI  -3
POPLAR           N/A     -6 -11  77 SW6       30.10F WCI -18
SCOBEY           N/A     10  -3  55 CALM      30.00F
$$

MTZ028>42-056>058-151400-
SOUTHCENTRAL AND SOUTHEAST MONTANA

CITY           SKY/WX    TMP DP  RH WIND       PRES   REMARKS
BAKER          CLOUDY    -5 -11  75 CALM      30.11F
BILLINGS       CLOUDY    17   3  54 SW25      30.10F WCI  -1
LIVINGSTON     CLOUDY    23   7  50 W24       30.13F WCI   7
MILES CITY     CLOUDY     0  -7  72 SE18      30.12F WCI -21
BIG TIMBER     CLEAR     25   9  50 SW31      30.10S WCI   8
EKALAKA          N/A     25  -4  28 SE2       30.06S
FORSYTH          N/A      0  -6  78 CALM      30.12S
HARLOWTON        N/A     24  10  55 W22       30.05F WCI   8
LAUREL           N/A     14  -1  51 SW20      30.08F WCI  -3
$$

REGIONAL REPORTS...DAKOTAS

CITY           SKY/WX    TMP DP  RH WIND       PRES   REMARKS
WILLISTON      CLOUDY     1  -3  83 S3        30.09F
MINOT          CLOUDY    12   3  67 SW18      30.04F WCI  -6
DICKINSON      CLOUDY    12   1  61 SW13      30.08S WCI  -3
BEACH            N/A     16   5  62 SW16      30.11S WCI   0
CROSBY           N/A      3  -2  78 S10       30.04S WCI -12
TIOGA            N/A      5   0  78 SW8       30.06F WCI  -8
WATFORD CITY     N/A      3  -2  78 SW3       30.09S
BISMARCK       CLOUDY    -9 -15  75 CALM      30.18F
GRAND FORKS    CLOUDY     1  -6  72 S13       30.14F WCI -17
FARGO          CLOUDY     9   2  73 S16       30.21F WCI  -8
BUFFALO SD       N/A     20   9  62 CALM      30.05S
RAPID CITY     CLOUDY    15   0  51 W8        30.12F WCI   4
$$

REGIONAL REPORTS...WYOMING/IDAHO/WASHINGTON

CITY           SKY/WX    TMP DP  RH WIND       PRES   REMARKS
GILLETTE       CLOUDY    13   4  67 N5        30.10F
SHERIDAN       CLOUDY    -1  -9  68 VRB7      30.10S WCI -14
BUFFALO WY     CLOUDY    26  -5  25 W8        30.08F WCI  18
CODY           CLOUDY     8   0  69 S3        30.11
YELLOWSTONE LA   N/A    -23 -27  82 CALM      30.20S
IDAHO FALLS    CLOUDY    -3  -6  87 N10       30.21F WCI -20
SALMON         CLOUDY   -20 -26  76 CALM      30.50R
BOISE          LGT SNOW  10   8  92 NW6       30.39F FOG     WCI   0
SPOKANE        FOG        0  -4  83 SW5       30.34F VSB 1/2
$$

REGIONAL REPORTS...ALBERTA

CITY           SKY/WX    TMP DP  RH WIND       PRES   REMARKS
EDMONTON       CLEAR     30  18  59 SW7       29.81S WCI  23
CALGARY        MOCLDY    37  16  41 W17G26    29.88S WCI  28
LETHBRIDGE     CLOUDY    30  18  59 SW13G22   29.93R WCI  20
MEDICINE HAT   CLOUDY    19  10  68 SW10      29.92F WCI   8
WATERTON GATE    N/A     30   7  37 SW30G40     N/A  WCI  15
CARDSTON         N/A     37  12  35 W14G21      N/A  WCI  29
MILK RIVER       N/A     34  18  51 SW5         N/A
ONEFOUR          N/A      5   0  78 E5          N/A
$$

REGIONAL REPORTS...SASKATCHEWAN

CITY           SKY/WX    TMP DP  RH WIND       PRES   REMARKS
SWIFT CURRENT  CLEAR     16   9  73 SW14      29.90R WCI   1
REGINA         MOCLDY     5   0  78 SE9       29.95S WCI  -9
SASKATOON      MOCLDY    18  12  79 SW12      29.86F WCI   5
CYPRESS HILLS    N/A     27  10  50 W3          N/A
VAL MARIE        N/A     -9 -15  77 S2          N/A
ROCKGLEN         N/A     23  10  58 W25         N/A  WCI   7
ASSINIBOIA       N/A     28  19  69 SW6         N/A  WCI  22
$$




USA.gov is the U.S. government's official web portal to all federal, state and local government web resources and services.